Shawano, WI

5:50 AM CDT on August 24, 2017 (GMT -0500)
Shawano

Weather History for KEZS - May, 2013

Change the Weather History Date:

Thursday, May 9, 2013

  Actual Average (KCLI) Record (KCLI)
Temperature  
Mean Temperature 53 °F -  
Max Temperature 64 °F 66 °F 84 °F (1953)
Min Temperature 42 °F 39 °F 21 °F (1966)
Degree Days  
Heating Degree Days 12    
Growing Degree Days 3 (Base 50)    
Moisture  
Dew Point 45 °F    
Average Humidity 71    
Maximum Humidity 93    
Minimum Humidity 49    
Precipitation  
Precipitation 0.38 in - - ()
Sea Level Pressure  
Sea Level Pressure 29.99 in    
Wind  
Wind Speed 7 mph (NE)    
Max Wind Speed 26 mph    
Max Gust Speed 33 mph    
Visibility 9 miles    
Events Rain    
Averages and records for this station are not official NWS values.
T = Trace of Precipitation, MM = Missing Value Source: NWS Daily Summary

Daily Weather History Graph

Daily Weather History Graph

Search for Another Location

Airport or City:

Trip Planner

Search our weather history database for the weather conditions in past years. The results will help you decide how hot, cold, wet, or windy it might be!

Date:

Astronomy

May. 09, 2013 Rise Set
Actual Time 5:32 AM CDT 8:09 PM CDT
Civil Twilight 4:59 AM CDT 8:42 PM CDT
Nautical Twilight 4:17 AM CDT 9:24 PM CDT
Astronomical Twilight 3:29 AM CDT 10:13 PM CDT
Moon 5:18 AM CDT (5/9) 8:04 PM CDT (5/9)
Length of Visible Light 15h 43m
Length of Day
14h 36m
Waning Crescent, 0% of the Moon is Illuminated
May 9
Waning Crescent
May 9
New
May 17
First Quarter
May 24
Full
May 31
Last Quarter

Hourly Weather History & Observations

Time (CDT) Temp. Windchill Dew Point Humidity Pressure Visibility Wind Dir Wind Speed Gust Speed Precip Events Conditions
1:35 AM 55.4 °F - 42.8 °F 63% 29.94 in 10.0 mi Calm Calm - N/A   Clear
1:55 AM 55.4 °F - 46.4 °F 72% 29.94 in 10.0 mi Calm Calm - N/A   Clear
2:15 AM 53.6 °F - 44.6 °F 72% 29.94 in 10.0 mi North 3.5 mph - N/A   Scattered Clouds
3:35 AM 53.6 °F - 46.4 °F 77% 29.94 in 10.0 mi Calm Calm - N/A   Clear
4:15 AM 53.6 °F - 46.4 °F 77% 29.94 in 10.0 mi Calm Calm - N/A   Mostly Cloudy
5:15 AM 53.6 °F - 42.8 °F 67% 29.94 in 10.0 mi ESE 4.6 mph - N/A   Scattered Clouds
6:15 AM 55.4 °F - 44.6 °F 67% 29.96 in 3.0 mi ENE 3.5 mph - N/A   Haze
8:15 AM 59.0 °F - 44.6 °F 59% 29.98 in 10.0 mi North 5.8 mph - N/A   Clear
8:35 AM 60.8 °F - 44.6 °F 55% 29.97 in 10.0 mi NNE 8.1 mph - N/A   Clear
9:15 AM 62.6 °F - 44.6 °F 52% 29.97 in 10.0 mi NE 5.8 mph - N/A   Clear
9:35 AM 62.6 °F - 44.6 °F 52% 29.96 in 10.0 mi NE 9.2 mph - N/A   Scattered Clouds
9:55 AM 62.6 °F - 44.6 °F 52% 29.95 in 3.0 mi NE 9.2 mph - N/A   Haze
10:15 AM 62.6 °F - 44.6 °F 52% 29.96 in 2.0 mi ENE 6.9 mph - N/A   Haze
10:35 AM 62.6 °F - 44.6 °F 52% 29.97 in 10.0 mi East 9.2 mph - N/A   Mostly Cloudy
10:55 AM 62.6 °F - 44.6 °F 52% 29.98 in 10.0 mi SSE 4.6 mph - N/A   Mostly Cloudy
11:15 AM 62.6 °F - 44.6 °F 52% 29.98 in 10.0 mi Calm Calm - N/A   Overcast
11:35 AM 62.6 °F - 46.4 °F 55% 29.99 in 10.0 mi WSW 3.5 mph - N/A   Overcast
11:55 AM 62.6 °F - 44.6 °F 52% 29.99 in 10.0 mi West 3.5 mph - N/A   Mostly Cloudy
12:15 PM 62.6 °F - 44.6 °F 52% 30.00 in 10.0 mi Calm Calm - N/A   Scattered Clouds
12:35 PM 62.6 °F - 46.4 °F 55% 29.99 in 10.0 mi North 5.8 mph - N/A   Mostly Cloudy
12:55 PM 62.6 °F - 46.4 °F 55% 29.99 in 10.0 mi North 5.8 mph - N/A Rain Light Rain
1:15 PM 64.4 °F - 48.2 °F 56% 29.98 in 10.0 mi NE 5.8 mph - N/A   Mostly Cloudy
1:55 PM 62.6 °F - 46.4 °F 55% 29.98 in 10.0 mi SSE 5.8 mph - N/A   Clear
2:35 PM 64.4 °F - 44.6 °F 49% 29.98 in 10.0 mi ESE 5.8 mph - N/A   Scattered Clouds
2:55 PM 62.6 °F - 44.6 °F 52% 29.98 in 10.0 mi ESE 5.8 mph - N/A   Scattered Clouds
3:15 PM 62.6 °F - 46.4 °F 55% 29.98 in 10.0 mi East 5.8 mph - N/A Rain Light Rain
3:35 PM 60.8 °F - 50.0 °F 68% 29.98 in 10.0 mi SE 4.6 mph - N/A Rain Light Rain
3:55 PM 60.8 °F - 50.0 °F 68% 29.99 in 10.0 mi ESE 5.8 mph - N/A Rain Light Rain
4:15 PM 60.8 °F - 48.2 °F 63% 29.99 in 10.0 mi ESE 5.8 mph - N/A   Light Drizzle
4:35 PM 59.0 °F - 50.0 °F 72% 29.99 in 10.0 mi East 6.9 mph - N/A Rain Rain
4:55 PM 59.0 °F - 51.8 °F 77% 29.99 in 10.0 mi SE 4.6 mph - 0.02 in Rain Rain
5:15 PM 59.0 °F - 50.0 °F 72% 30.00 in 7.0 mi ENE 10.4 mph - 0.02 in Rain Light Rain
5:35 PM 57.2 °F - 50.0 °F 77% 30.00 in 5.0 mi NE 12.7 mph 17.3 mph 0.04 in Rain Light Rain
5:55 PM 55.4 °F - 50.0 °F 82% 30.00 in 4.0 mi NE 9.2 mph - 0.06 in Rain Rain
6:15 PM 55.4 °F - 50.0 °F 82% 30.00 in 5.0 mi NNE 10.4 mph - 0.02 in Rain Light Rain
6:35 PM 53.6 °F - 50.0 °F 88% 30.00 in 7.0 mi NE 13.8 mph 19.6 mph 0.04 in Rain Light Rain
6:55 PM 53.6 °F - 50.0 °F 88% 30.00 in 10.0 mi NE 15.0 mph 24.2 mph 0.06 in Rain Light Rain
7:35 PM 50.0 °F - 46.4 °F 87% 30.01 in 10.0 mi NE 17.3 mph 21.9 mph 0.04 in Rain Light Rain
7:55 PM 50.0 °F - 46.4 °F 87% 30.01 in 10.0 mi NE 21.9 mph 25.3 mph 0.06 in Rain Light Rain
8:15 PM 46.4 °F 37.7 °F 44.6 °F 93% 30.01 in 7.0 mi NNE 26.5 mph 33.4 mph 0.02 in Rain Light Rain
8:35 PM 44.6 °F 36.6 °F 42.8 °F 93% 30.03 in 7.0 mi NE 19.6 mph 28.8 mph 0.04 in Rain Light Rain
8:55 PM 44.6 °F 36.1 °F 42.8 °F 93% 30.03 in 10.0 mi NNE 21.9 mph 28.8 mph 0.06 in Rain Light Rain
9:15 PM 44.6 °F 36.1 °F 41.0 °F 87% 30.03 in 10.0 mi NE 21.9 mph 26.5 mph 0.02 in Rain Light Rain
9:35 PM 42.8 °F 34.3 °F 41.0 °F 93% 30.03 in 10.0 mi NNE 19.6 mph 28.8 mph 0.04 in Rain Rain
9:55 PM 42.8 °F 34.5 °F 41.0 °F 93% 30.04 in 10.0 mi NE 18.4 mph 25.3 mph 0.06 in Rain Light Rain
10:15 PM 42.8 °F 34.5 °F 41.0 °F 93% 30.04 in 10.0 mi NNE 18.4 mph 21.9 mph N/A Rain Light Rain
10:35 PM 42.8 °F 34.5 °F 41.0 °F 93% 30.04 in 10.0 mi NNE 18.4 mph 25.3 mph 0.02 in Rain Rain
10:55 PM 42.8 °F 34.5 °F 41.0 °F 93% 30.04 in 10.0 mi NNE 18.4 mph 25.3 mph 0.04 in   Drizzle
11:15 PM 42.8 °F 34.3 °F 39.2 °F 87% 30.04 in 10.0 mi NE 19.6 mph 26.5 mph N/A Rain Rain
11:35 PM 42.8 °F 35.1 °F 39.2 °F 87% 30.04 in 10.0 mi NE 16.1 mph 24.2 mph 0.02 in Rain Light Rain
11:55 PM 42.8 °F 34.3 °F 39.2 °F 87% 30.03 in 10.0 mi NE 19.6 mph 25.3 mph 0.02 in Rain Light Rain